User: anonymous   Login
Location: Unspecified
(0.0000°N, 0.0000°E)
Time: 16:41:01
(UTC+00:00)
Language:

USA 184 - Orbit

View from above orbital plane
View from above orbital plane
View from above satellite
View from above satellite

Ground track
Ground track

The orbit data is extracted from the following two-line orbital elements,

1 29249U 06027A   14350.89366239 0.00000614  00000-0  00000-0 0    04
2 29249  63.7473  38.6806 7106883 267.9987  16.7183  2.00612604    07
Epoch (UTC): 16 December 2014 21:26:52
Eccentricity: 0.7106883
inclination: 63.7473°
perigee height: 1305 km
apogee height: 39050 km
right ascension of ascending node: 38.6806°
argument of perigee: 267.9987°
revolutions per day: 2.00612604
mean anomaly at epoch: 16.7183°
orbit number at epoch: 0

The dashed part of the orbit path shows where the satellite is in the earth's shadow,  

DLR